Location: Rodson Ranch
(38.7188°N, 119.3202°W)
Time: 17:03:34
(UTC+00:00)

Meteor 2-19 Rocket - Pass Details

Date: 29 October 2020
Orbit: 936 x 959 km, 82.5° (Epoch: 22 November)

Event Time Altitude Azimuth Distance (km) Brightness Sun altitude
Rises 13:39:36 0° 197° (SSW) 3,603 7.4 -8.8°
Reaches altitude 10° 13:42:07 10° 201° (SSW) 2,659 6.7 -8.3°
Maximum altitude 13:48:05 58° 280° (W) 1,095 4.5 -7.2°
Drops below altitude 10° 13:54:04 10° 359° (N) 2,660 6.7 -6.0°
Sets 13:56:37 0° 4° (N) 3,606 7.4 -5.6°
